This is the latest recevied weather packets stored in our database for station/object SR8NGO-1. If no packets are shown the sender has not sent any weather packets the latest 1 day(s).
| Time | Temp. | Humidity | Pressure | Rain* | Wind** | Luminosity | Snow |
|---|---|---|---|---|---|---|---|
| 1778047248 | 22.78° C | 43% | 996.9 hPa | 137.92 mm | - | - | - |
| 1778047008 | 22.22° C | 44% | 997 hPa | 137.92 mm | - | - | - |
| 1778045808 | 22.22° C | 45% | 997.2 hPa | 137.92 mm | - | - | - |
| 1778044368 | 20° C | 47% | 997.2 hPa | 137.92 mm | - | - | - |
| 1778044128 | 18.89° C | 47% | 997.2 hPa | 137.92 mm | - | - | - |
| 1778043408 | 17.78° C | 47% | 997.3 hPa | 136.91 mm | - | - | - |
| 1778043168 | 17.78° C | 48% | 997.3 hPa | 137.92 mm | - | - | - |
| 1778042928 | 18.89° C | 49% | 997.3 hPa | 137.92 mm | - | - | - |
| 1778042688 | 17.78° C | 49% | 997.3 hPa | 137.92 mm | - | - | - |
| 1778042448 | 17.78° C | 50% | 997.2 hPa | 137.92 mm | - | - | - |
| 1778042208 | 17.22° C | 52% | 997.3 hPa | 136.91 mm | - | - | - |
| 1778041968 | 17.22° C | 53% | 997.4 hPa | 136.91 mm | - | - | - |
| 1778041728 | 17.22° C | 55% | 997.4 hPa | 135.89 mm | - | - | - |
| 1778041488 | 17.22° C | 56% | 997.4 hPa | 135.89 mm | - | - | - |
| 1778041248 | 16.11° C | 57% | 997.4 hPa | 134.87 mm | - | - | - |
| 1778041008 | 16.11° C | 58% | 997.4 hPa | 134.87 mm | - | - | - |
| 1778040768 | 15° C | 59% | 997.4 hPa | 134.11 mm | - | - | - |
| 1778040528 | 15° C | 60% | 997.4 hPa | 134.11 mm | - | - | - |
| 1778040048 | 13.89° C | 61% | 997.4 hPa | 133.1 mm | - | - | - |
| 1778039808 | 13.89° C | 61% | 997.3 hPa | 132.08 mm | - | - | - |
| 1778039568 | 13.89° C | 61% | 997.3 hPa | 132.08 mm | - | - | - |
| 1778039328 | 13.89° C | 61% | 997.3 hPa | 131.06 mm | - | - | - |
| 1778039088 | 13.89° C | 61% | 997.3 hPa | 131.06 mm | - | - | - |
| 1778038608 | 13.89° C | 61% | 997.4 hPa | 129.03 mm | - | - | - |
| 1778038368 | 13.89° C | 61% | 997.3 hPa | 128.02 mm | - | - | - |
* Rain latest hour (hover to see other rain measurements)
** Current wind speed in m/s (hover to see current wind gust speed)